Вернуться в каталог

STARLINK-4551

АктивенСвязьVLEO
NORAD 53575·PAYLOAD·🇺🇸 United States

Запущен Aug 19, 2022 с Cape Canaveral Space Force Station

Loading…

Ближайшие Пролёты (ближайшие 24 часа)

TLE

СвежийSource: CelesTrak SupGP

Эпоха: Sep 14, 2026, 22:08 UTC

1 53575C 22101BA  26257.92270833  .00051934  00000+0  15348-2 0  2578
2 53575  53.1569 269.5266 0001165  80.3099 118.3369 15.34357050    19

Отслеживайте STARLINK-4551 в реальном времени с AllMySat

Download on the App Store